Theta_e
322 324 328 327 328 329 331 330 328 323 325 323 320 318 316 314 313 313 312 311 310 310 310 309 309 308 308 307 306 305 303 302 304 303 300 300 300 299 298 297 297 296 295
324 323 326 328 328 329 330 330 329 327 326 322 319 317 315 314 313 312 311 310 310 309 308 306 305 304 304 304 305 304 303 303 303 301 299 297 298 297 297 296 296 294 294
325 325 325 329 328 329 329 329 328 326 325 326 320 318 314 313 312 311 311 309 306 305 302 299 298 298 298 300 301 303 303 303 302 300 299 296 295 295 296 295 294 293 293
327 326 326 329 329 329 329 329 328 328 324 320 318 315 313 313 312 309 304 303 302 301 299 298 298 298 298 298 298 301 303 302 300 299 297 296 295 292 291 293 293 293 292
328 326 327 331 331 331 331 330 327 320 319 317 315 315 313 309 304 304 302 301 299 298 298 298 298 297 299 301 302 302 302 300 299 298 297 297 295 293 292 290 291 292 292
325 327 330 332 331 331 330 325 320 316 316 315 313 313 310 306 305 301 300 299 299 298 298 298 297 299 300 302 301 300 299 299 298 297 296 295 293 293 292 290 291 291 291
327 329 328 328 330 329 321 318 316 315 315 314 311 308 306 305 303 301 300 298 298 298 297 297 297 298 300 300 299 299 298 298 297 297 296 295 294 293 292 291 290 289 290
326 328 329 329 325 321 317 315 315 314 314 312 309 306 303 303 302 300 299 298 298 297 297 296 296 297 300 299 298 298 297 297 297 296 296 294 293 292 292 291 290 287 288
327 330 328 324 320 318 316 315 314 313 312 309 306 303 302 301 300 300 298 297 297 297 296 296 296 296 296 299 298 298 297 297 296 295 295 294 292 291 291 291 290 289 287
324 323 322 320 319 319 317 315 314 313 308 304 303 302 301 301 300 299 298 297 297 296 296 296 295 295 295 296 297 297 296 294 295 294 293 293 292 292 291 290 289 289 288
321 319 318 318 318 318 317 316 313 312 306 304 304 303 301 300 300 299 298 297 297 296 296 295 295 295 295 295 295 294 294 293 293 293 292 292 291 290 289 288 287 287 285
320 317 316 316 316 317 317 315 314 311 306 304 304 302 301 301 300 299 298 297 296 296 295 295 295 295 295 295 294 294 294 293 292 292 291 291 290 289 287 287 286 284 283
318 316 314 316 316 316 315 315 314 309 305 305 304 302 301 301 300 299 298 297 297 296 295 294 295 295 295 294 293 293 292 292 292 291 291 289 289 287 286 285 284 283 282
320 316 316 315 316 316 315 314 314 307 306 305 303 302 302 301 301 299 298 297 297 296 295 294 294 295 295 294 293 293 291 290 290 289 288 288 287 286 285 284 283 282 282
317 317 315 314 316 315 314 314 313 308 306 304 303 302 301 301 300 298 298 297 297 296 295 294 294 294 295 294 294 293 292 289 288 288 288 287 286 285 284 283 283 282 282
314 314 318 316 315 314 314 313 311 308 306 304 302 301 301 300 298 297 297 296 296 296 296 295 294 294 294 294 294 293 291 289 287 287 287 286 285 284 283 283 282 281 280
314 314 315 316 315 315 315 313 310 307 305 303 301 299 299 298 297 298 296 295 296 296 295 295 294 294 293 293 293 292 291 288 286 287 287 286 284 284 283 282 281 281 278
313 313 314 316 317 317 315 314 309 306 303 301 298 297 298 298 297 295 296 296 295 294 294 294 295 294 293 293 292 291 290 287 286 286 286 285 284 283 282 282 280 279 277
310 312 313 315 316 315 315 311 306 304 300 298 298 298 297 296 295 295 294 294 293 293 294 294 294 294 293 292 291 290 287 285 286 285 285 284 284 282 282 281 280 278 277
311 307 305 308 311 312 311 306 301 299 298 296 296 296 296 296 294 294 293 293 293 293 293 293 293 292 291 290 289 288 286 285 285 285 284 283 283 281 281 281 279 278 279
301 300 299 299 301 302 300 297 297 296 296 296 296 296 296 294 294 293 293 293 292 292 292 293 292 291 291 290 289 288 286 286 285 284 283 282 282 282 281 280 279 279 279
298 297 297 296 296 297 297 296 296 295 295 296 296 295 294 294 293 293 292 292 291 291 292 292 291 291 290 290 289 288 287 286 285 283 282 281 282 282 281 281 280 280 280
297 297 297 296 296 296 296 295 295 296 297 297 295 294 294 293 292 292 292 291 291 291 291 292 291 291 291 290 289 289 288 287 285 284 282 282 282 282 281 281 281 281 281
298 297 296 295 295 296 296 297 296 297 296 293 293 292 292 292 292 291 291 291 291 291 290 290 291 291 291 290 290 289 288 287 285 284 283 282 282 281 281 282 282 282 281
296 296 295 295 294 294 294 294 293 293 292 292 292 292 291 291 291 291 292 292 291 291 290 290 290 290 290 291 290 288 288 287 286 285 283 283 282 281 282 282 282 281 282
296 295 295 295 295 294 293 293 293 292 292 292 291 291 291 292 292 291 291 292 292 291 291 290 289 290 290 289 290 288 286 285 286 284 283 283 281 281 281 282 282 281 282
Wind_Speed
16 29 33 38 38 35 32 30 28 23 20 20 21 22 22 24 17 14 13 13 13 9 5 1 4 6 9 10 11 9 12 14 8 7 12 11 5 11 15 15 17 18 18
11 19 29 34 38 38 35 31 26 23 23 23 27 27 28 20 15 16 13 9 6 5 4 4 5 6 8 9 8 11 13 10 6 6 5 3 6 12 17 19 23 15 18
17 12 22 33 34 38 37 34 28 22 24 23 27 26 25 22 21 19 14 12 9 6 2 4 6 8 10 9 10 10 5 5 4 8 6 3 1 5 4 12 14 17 18
13 12 15 24 31 33 37 34 29 22 27 31 33 34 30 24 23 19 14 8 3 2 4 5 7 11 13 13 11 11 9 1 6 4 9 9 9 1 4 10 9 18 19
17 13 15 24 31 34 33 31 27 29 22 24 26 26 29 26 23 16 9 5 2 1 2 5 9 12 11 13 10 3 3 8 8 7 6 8 7 6 2 3 9 14 18
10 11 21 27 28 29 29 30 31 25 26 25 25 29 30 25 18 12 8 6 5 2 2 6 9 10 10 4 4 7 8 9 10 8 5 6 1 3 2 2 4 13 16
12 12 12 19 28 23 32 32 30 26 24 25 27 27 24 19 14 12 8 6 5 1 3 8 7 9 10 4 7 12 10 10 9 7 8 8 8 8 8 6 10 4 19
9 13 17 20 22 30 32 31 30 27 24 23 21 19 17 15 13 12 8 5 2 2 4 4 7 7 8 7 11 10 12 11 8 11 10 8 10 11 7 7 8 4 5
8 13 12 22 27 31 28 30 30 27 24 22 20 18 17 17 15 11 7 5 0 3 6 8 8 9 8 10 11 11 11 9 11 13 9 5 5 4 9 11 9 10 6
9 8 15 22 28 31 27 23 28 28 27 24 22 19 17 15 12 10 8 5 2 4 5 7 9 9 10 9 9 7 5 9 10 3 1 5 13 14 10 11 14 15 15
12 11 17 25 33 33 30 26 27 30 28 25 22 16 14 13 11 10 7 6 3 4 5 7 10 10 10 11 7 8 8 6 2 1 2 2 4 7 12 11 11 12 15
14 13 21 26 28 32 35 33 28 34 31 28 20 17 16 15 11 10 9 5 6 4 5 8 10 12 13 5 10 12 10 2 5 6 6 7 9 11 11 13 12 14 19
11 13 14 22 27 28 32 36 30 35 34 28 21 21 18 16 14 11 7 8 5 6 7 10 12 12 9 10 10 10 1 1 3 4 8 7 8 8 10 13 16 15 16
14 13 13 15 27 32 35 37 33 34 34 27 26 25 20 19 16 13 9 6 7 8 9 12 14 16 11 10 9 8 5 5 3 4 7 8 8 11 14 14 12 13 14
4 7 9 9 21 24 24 31 32 31 31 28 28 21 20 21 15 7 1 9 10 12 15 15 17 16 16 13 13 12 12 8 9 7 8 10 12 13 14 9 11 10 15
6 7 5 10 18 23 26 30 31 31 29 29 22 15 19 16 11 5 11 13 14 18 23 19 17 16 13 14 14 12 11 8 8 7 8 11 11 9 6 6 6 10 14
6 7 6 9 16 24 30 33 33 32 29 26 19 23 22 13 7 3 9 18 19 21 21 21 21 17 14 13 13 11 10 8 6 7 9 11 9 12 10 14 17 19 19
7 6 3 5 16 25 29 31 30 31 28 22 23 19 14 7 7 8 19 15 14 16 16 20 19 17 15 12 12 11 10 7 7 7 9 11 11 13 14 18 17 19 17
8 9 8 7 12 19 26 29 29 30 28 27 20 13 11 10 7 9 11 18 17 17 14 15 16 14 13 12 11 11 9 7 7 9 10 10 11 13 12 14 18 20 19
18 21 21 21 5 10 22 26 22 24 22 23 20 16 11 6 3 16 19 16 13 14 15 15 12 13 13 12 12 11 9 9 8 10 9 10 11 10 12 15 17 18 16
22 26 29 27 26 24 33 29 30 28 22 18 16 12 5 2 13 14 14 15 18 17 17 19 14 12 10 10 11 12 12 10 9 12 13 11 10 12 15 15 15 14 14
22 23 27 27 29 28 33 27 27 21 22 19 11 4 5 11 10 10 14 18 19 18 22 20 15 12 12 11 13 13 13 13 12 12 13 12 12 16 16 13 13 15 16
20 21 24 25 26 24 25 24 18 15 13 6 4 7 11 10 13 17 16 18 14 14 19 13 17 16 15 16 18 15 16 16 17 14 12 11 12 14 15 14 16 16 17
19 20 22 19 17 16 15 13 8 5 5 2 7 11 11 14 15 14 17 18 16 14 15 14 18 18 17 19 18 21 19 19 19 18 16 16 15 16 15 15 13 13 13
15 15 15 14 13 10 9 8 7 6 6 9 11 13 15 15 17 16 15 16 15 16 14 14 16 16 18 21 20 18 20 21 20 18 18 18 17 16 16 16 15 13 14
13 14 13 11 8 7 7 6 8 8 9 13 14 15 15 15 17 19 21 17 18 17 19 17 18 20 22 20 20 20 17 16 17 18 22 23 20 18 19 19 17 14 13
Wind_Direction
159 162 153 155 156 160 159 161 166 164 155 153 148 150 142 137 136 140 142 124 116 106 109 17 319 314 324 335 339 343 338 337 324 328 349 338 330 345 0 6 359 1 0
160 166 150 157 160 165 165 167 177 183 174 171 168 161 157 158 150 147 136 128 128 97 39 29 31 13 355 339 328 335 330 321 5 358 7 352 323 357 348 341 339 359 360
173 175 159 159 165 167 169 174 179 187 191 190 178 167 154 147 145 142 128 120 122 118 75 4 346 343 338 344 343 338 345 317 355 36 65 15 340 331 19 351 5 351 349
167 164 157 157 164 170 173 177 178 185 168 162 156 159 159 146 151 142 130 128 137 297 301 321 330 333 337 334 326 317 313 155 80 85 33 38 8 343 349 358 353 342 336
165 163 155 154 167 170 171 176 168 152 157 158 162 165 145 141 139 143 147 154 186 181 300 320 327 340 346 332 324 3 38 51 42 26 3 332 334 357 17 311 325 337 331
147 147 151 152 161 167 172 166 155 146 152 154 156 155 152 150 152 147 155 162 155 125 340 340 348 347 341 356 17 28 20 2 351 348 352 340 348 342 345 273 310 308 321
148 142 147 148 157 168 156 152 149 148 156 158 155 154 156 162 159 164 168 158 164 156 343 339 351 349 330 337 341 331 341 342 345 341 330 299 304 312 310 315 313 293 314
139 158 167 164 148 155 154 154 156 153 163 163 161 162 164 165 162 162 157 154 199 326 337 329 334 326 306 302 319 315 324 325 306 309 283 285 293 293 306 338 344 323 310
141 159 147 143 148 156 159 163 162 162 168 171 172 165 163 169 167 161 148 147 154 325 310 333 334 312 336 311 302 302 306 307 310 309 271 265 301 6 338 325 333 322 301
149 150 153 154 157 165 169 172 171 171 169 171 173 174 174 174 166 161 166 191 211 276 312 326 315 315 311 320 306 306 317 321 305 273 252 283 304 317 323 327 330 315 313
170 163 163 167 170 175 178 181 177 175 175 178 179 183 181 177 173 176 187 193 223 291 306 314 309 306 304 305 304 328 335 346 310 67 0 334 356 330 328 324 321 329 340
176 170 168 169 174 176 182 185 181 179 181 180 181 185 189 187 190 201 195 214 243 285 292 300 300 294 299 293 319 315 300 298 6 10 339 318 313 314 300 302 318 328 332
178 181 171 175 176 178 179 184 181 181 179 179 184 182 192 196 203 196 219 224 251 255 283 290 288 287 269 297 309 302 204 353 353 337 318 326 310 294 304 314 319 330 326
188 191 191 180 176 177 177 181 183 180 180 181 185 188 196 203 212 212 201 242 254 273 275 299 286 284 260 283 272 276 288 316 321 332 329 323 322 320 316 312 321 323 315
118 249 206 164 168 170 170 178 182 179 177 181 182 189 204 208 187 175 272 271 281 273 289 279 271 287 253 260 265 256 258 281 299 298 308 317 318 320 313 318 319 315 314
29 22 134 163 165 168 169 176 185 180 180 179 179 195 177 152 137 89 340 313 283 283 274 269 263 277 261 254 255 250 255 268 277 286 304 310 311 307 287 296 310 314 317
59 43 78 176 172 169 182 188 190 181 178 171 160 146 152 152 101 350 347 280 268 274 274 264 264 261 255 240 242 244 252 263 275 287 302 303 298 289 291 302 310 313 314
30 24 31 135 186 195 196 194 183 177 167 157 138 128 139 133 60 18 295 270 291 298 295 279 266 254 244 241 230 234 236 249 254 278 296 298 295 280 293 305 311 317 317
5 353 329 265 220 189 189 181 168 159 144 127 117 108 107 102 70 304 287 279 295 293 301 300 280 255 235 220 226 235 235 243 258 287 291 291 286 281 287 299 312 315 319
37 50 48 46 357 186 170 143 109 95 96 103 95 88 89 89 320 283 298 304 293 298 311 317 294 252 245 215 219 230 243 252 283 289 277 281 288 271 287 303 308 305 318
68 68 56 45 46 81 100 87 97 102 110 100 86 76 56 334 274 285 286 296 309 306 302 296 258 242 234 228 236 240 246 270 285 284 277 271 273 289 301 297 291 295 309
71 69 69 59 62 76 88 84 82 83 89 85 83 119 240 260 284 288 294 297 303 301 300 300 213 230 246 250 248 244 258 265 266 275 279 264 260 279 295 291 295 295 292
76 75 79 75 72 81 89 86 92 89 93 112 175 245 263 284 276 283 285 297 301 306 342 253 221 229 246 247 245 252 256 258 256 265 263 266 267 280 289 289 292 287 287
77 81 82 83 89 88 94 105 124 125 120 186 281 298 288 279 281 283 278 281 274 294 313 319 255 248 255 254 251 242 242 247 249 254 255 257 269 289 284 285 287 294 288
79 83 86 84 76 71 67 58 36 4 337 309 298 289 283 279 278 282 284 293 270 279 288 298 284 286 273 264 257 241 236 241 246 253 251 252 256 273 279 276 281 292 290
75 75 75 71 56 39 25 357 337 317 297 290 288 288 285 283 283 286 289 285 275 259 280 286 284 285 273 271 253 243 246 245 240 235 237 240 255 264 271 274 274 287 292